[[{"header":{"parameterUnit":"m.s-1","parameterCategory":1,"la1":30.2991,"la2":30.254,"lo1":-89.0895,"lo2":-89.0444,"dy":0.0017,"dx":0.0017,"nx":28,"ny":28,"refTime":"2025-06-09T21:00:00:Z","depth":0,"parameterNumber":2,"parameterNumberName":"U-component_of_WINDS"},"data":[0,0,0,0,0,0,0,0,0,0,0,0,0,0,0,0,0,0,0,0,0,0,0,0,0,0,0,0,0,0,0,0,0,0,0,0,0,0,0,0,0,0,0,0,0,0,0,0,0,0,0,0,0,0,0,0,0,0,4.6477,4.6477,0,4.6488,4.6489,4.6489,4.6331,4.6327,4.6323,4.6319,4.6334,4.6339,4.6343,0,0,0,0,0,0,0,0,0,0,0,0,0,4.6321,4.6325,4.6477,4.6477,4.6477,4.6488,4.6489,4.6489,4.6332,4.6327,4.6322,4.6317,4.6333,4.6338,4.6343,0,0,0,0,0,0,0,0,0,0,0,0,0,4.6366,4.6326,4.6477,4.64,4.6393,4.6488,4.6489,4.6489,4.6333,4.6327,4.632,4.6314,4.6331,4.6337,4.6344,4.6514,0,0,4.6364,4.6367,0,0,0,0,0,0,0,0,4.6364,4.6372,4.6411,4.6406,4.6398,4.6402,4.6439,4.6497,4.6335,4.6356,4.6318,4.6311,4.6362,4.6366,4.6382,4.6515,4.6515,4.6365,4.6369,4.6372,4.6374,0,0,0,0,0,0,0,4.6361,4.6371,4.6481,4.6412,4.6404,4.6366,4.6365,4.6449,4.6395,4.6354,4.6342,4.6346,4.6357,4.6376,4.6381,4.6516,4.6365,4.6371,4.6375,4.6377,4.6784,4.679,0,0,0,0,0,0,4.6368,4.6369,4.6481,4.6482,4.6365,4.6374,4.6373,4.6407,4.6394,4.6386,4.6351,4.6338,4.6368,4.6374,4.6381,4.6575,4.6372,4.6378,4.6382,4.6777,4.6785,4.6793,0,0,0,0,0,0,4.6365,4.6379,4.6481,4.6422,4.6432,4.6383,4.6423,4.6411,4.6429,4.6392,4.6382,4.638,4.6363,4.6372,4.6481,4.6574,4.6381,4.6387,4.6769,4.678,4.6789,4.6968,0,0,0,0,0,0,4.6361,4.6379,4.6443,4.6425,4.6436,4.658,4.6429,4.6416,4.6441,4.6424,4.6416,4.6409,4.6359,4.6472,4.6488,4.658,4.6392,4.676,4.6774,4.6786,4.6954,4.6983,4.7009,0,0,0,0,0,4.6356,4.6495,4.6447,4.6462,4.6515,4.6586,4.6592,4.653,4.6449,4.6512,4.6488,4.6409,4.6562,4.6484,4.6501,4.6596,4.6754,4.677,4.6785,4.6941,4.6977,4.7008,0,0,0,0,0,0,4.6527,4.6491,4.6438,4.6575,4.6584,4.6559,4.6637,4.6571,4.6605,4.6588,4.6512,4.6511,4.6632,4.6626,4.6539,4.6758,4.6644,4.6663,4.6757,4.6791,4.6818,4.6816,4.6398,0,0,0,0,0,4.6581,4.6641,4.6606,4.673,4.6738,4.6687,4.6716,4.6667,4.6675,4.6678,4.6662,4.6673,4.6722,4.6757,4.6801,4.6953,4.6947,4.7027,4.7054,4.7077,4.7093,4.7169,4.7203,4.6843,4.6843,4.6843,0,0,4.6692,4.668,4.6723,4.6764,4.6766,4.6829,4.6692,4.6766,4.6811,4.669,4.6789,4.6779,4.6786,4.6915,4.6972,4.6914,4.7192,4.7097,4.7115,4.7119,4.7188,4.7223,4.7253,4.6853,4.6852,4.685,0,0,4.6926,4.6925,4.7025,4.7029,4.7032,4.6997,4.7022,4.7006,4.6993,4.7092,4.7001,4.7056,4.7145,4.7151,4.7167,4.7402,4.733,4.7419,4.7561,4.7636,4.7664,4.7689,4.7769,4.7799,4.7437,4.7437,4.7438,0,4.7064,4.7154,4.7086,4.7164,4.7184,4.7075,4.7176,4.7184,4.7203,4.7219,4.7154,4.726,4.7258,4.7385,4.7442,4.746,4.7484,4.7418,4.7666,4.769,4.7712,4.7787,4.7818,4.7448,4.7446,4.7445,4.7444,0,4.7322,4.7386,4.7468,4.7485,4.7514,4.7605,4.7549,4.7587,4.7537,4.7509,4.761,4.7603,4.7642,4.7669,4.7622,4.779,4.7753,4.7679,4.7562,4.7758,4.7827,4.7856,4.7463,4.7459,4.7456,4.7453,0,0,4.7662,4.7639,4.767,4.7674,4.767,4.7718,4.7803,4.7839,4.7872,4.7889,4.7956,4.8033,4.7962,4.798,4.7933,4.7999,4.818,4.7915,4.7914,4.7961,4.8361,4.8414,4.8449,4.8134,4.8139,4.8143,4.8359,0,4.7886,4.8026,4.7966,4.8112,4.8169,4.8066,4.8139,4.8145,4.8121,4.8166,4.8141,4.8194,4.81,4.8109,4.817,4.8145,4.8259,4.813,4.8194,4.8197,4.819,4.8486,4.8542,4.8746,4.8386,4.8391,4.8394,0,4.8165,4.819,4.8341,4.8323,4.8344,4.8411,4.8437,4.8483,4.8486,4.8464,4.8483,4.842,4.8501,4.8387,4.8496,4.841,4.8433,4.8425,4.8431,4.8431,4.8304,4.849,4.881,4.8839,4.8437,4.8433,4.843,0,4.8392,4.8465,4.8563,4.8571,4.8554,4.8602,4.8597,4.8594,4.8619,4.8643,4.8658,4.8693,4.8711,4.874,4.8687,4.861,4.8803,4.8686,4.8785,4.8786,4.8827,4.8824,4.9151,4.885,4.8849,4.8849,4.8848,0,4.8645,4.8741,4.8664,4.8724,4.8828,4.8758,4.8863,4.8847,4.8845,4.89,4.8816,4.887,4.8799,4.8846,4.8807,4.8901,4.8911,4.8894,4.8882,4.8899,4.8901,4.891,4.8893,4.8857,4.8855,4.8853,4.8852,0,4.8915,4.8868,4.8967,4.8942,4.8938,4.9015,4.8993,4.9048,4.9018,4.9089,4.9102,4.9056,4.9106,4.9057,4.9107,4.908,4.9204,4.9174,4.9202,4.9192,4.9292,4.9282,4.9633,4.9673,4.9351,4.9354,4.9357,0,4.9077,4.9148,4.9129,4.9159,4.9158,4.9209,4.9232,4.9167,4.9196,4.9203,4.9257,4.93,4.933,4.9416,4.9388,4.9424,4.9391,4.9512,4.9396,4.941,4.9387,4.9381,4.9386,4.9534,4.9538,4.9541,4.9543,0,4.9369,4.9341,4.9378,4.9406,4.9436,4.9456,4.947,4.95,4.9432,4.9469,4.9518,4.9542,4.959,4.9633,4.966,4.9656,4.9588,4.9581,4.9604,4.9621,4.9632,4.9622,4.9261,4.9572,4.9569,4.9567,4.9565,4.9564,4.9586,4.9642,4.9637,4.968,4.9682,4.9696,4.9745,4.9721,4.976,4.9792,4.9753,4.9813,4.9813,4.9842,4.9846,4.9891,4.984,4.9877,4.9885,4.9894,4.9906,4.9629,4.9897,4.9896,4.9895,4.9895,4.9894,0,4.9869,4.986,4.99,4.992,4.9953,4.9887,4.9898,4.993,4.9983,4.9989,5.0019,5.0075,5.0116,5.0091,5.0126,5.0167,5.0137,5.0178,5.0172,5.0171,4.9952,4.9925,5.0202,5.0202,5.0202,5.0202,5.0202,5.0202,5.0019,5.0109,5.0081,5.0171,5.0162,5.0218,5.0229,5.0242,5.0244,5.031,5.0343,5.0325,5.0318,5.0351,5.0385,5.0377,5.0392,5.0443,5.0423,5.0218,5.0187,5.0158,5.0133,5.0448,5.0449,5.0638,5.064,5.0641]},{"header":{"parameterUnit":"m.s-1","parameterCategory":1,"la1":30.2991,"la2":30.254,"lo1":-89.0895,"lo2":-89.0444,"dy":0.0017,"dx":0.0017,"nx":28,"ny":28,"refTime":"2025-06-09T21:00:00:Z","depth":0,"parameterNumber":3,"parameterNumberName":"V-component_of_WINDS"},"data":[0,0,0,0,0,0,0,0,0,0,0,0,0,0,0,0,0,0,0,0,0,0,0,0,0,0,0,0,0,0,0,0,0,0,0,0,0,0,0,0,0,0,0,0,0,0,0,0,0,0,0,0,0,0,0,0,0,0,4.0611,4.0613,0,4.0816,4.0819,4.0821,4.0824,4.0822,4.0819,4.0817,4.1024,4.1031,4.1039,0,0,0,0,0,0,0,0,0,0,0,0,0,4.0217,4.0225,4.0611,4.0613,4.0616,4.0816,4.0819,4.0822,4.0825,4.0822,4.0818,4.0816,4.1021,4.103,4.104,0,0,0,0,0,0,0,0,0,0,0,0,0,4.0402,4.0227,4.061,4.0642,4.0647,4.0815,4.0819,4.0822,4.0825,4.0822,4.0818,4.0814,4.1018,4.103,4.1041,4.1191,0,0,4.1077,4.1083,0,0,0,0,0,0,0,0,4.0392,4.0416,4.0635,4.064,4.0646,4.0791,4.0756,4.0946,4.0826,4.0757,4.0817,4.0812,4.0949,4.0966,4.1013,4.1201,4.121,4.1078,4.1086,4.1091,4.1094,0,0,0,0,0,0,0,4.0379,4.0408,4.0692,4.0638,4.0645,4.0644,4.0666,4.0792,4.0872,4.0763,4.0764,4.0788,4.0951,4.1002,4.1018,4.1213,4.1078,4.1089,4.1096,4.1101,4.1532,4.1536,0,0,0,0,0,0,4.036,4.0397,4.0685,4.0698,4.0507,4.0654,4.0679,4.0748,4.0871,4.0886,4.0791,4.0788,4.0983,4.1004,4.1025,4.1209,4.1091,4.1102,4.1109,4.1528,4.1533,4.1538,0,0,0,0,0,0,4.0352,4.0386,4.0677,4.0548,4.0585,4.0665,4.0743,4.0754,4.0805,4.0892,4.0906,4.0829,4.0981,4.1009,4.115,4.1216,4.1107,4.1118,4.1523,4.153,4.1536,4.1576,0,0,0,0,0,0,4.034,4.0383,4.0442,4.0549,4.0592,4.08,4.0747,4.0761,4.0825,4.0823,4.0931,4.0945,4.098,4.1132,4.1162,4.123,4.1127,4.1517,4.1526,4.1534,4.157,4.1583,4.1595,0,0,0,0,0,4.0326,4.0445,4.0445,4.048,4.0668,4.0804,4.0828,4.0867,4.0831,4.089,4.0946,4.0942,4.1204,4.1147,4.118,4.1253,4.1513,4.1523,4.1533,4.1564,4.1581,4.1595,0,0,0,0,0,0,4.0343,4.046,4.0461,4.0618,4.0701,4.0804,4.088,4.0884,4.0979,4.0972,4.1015,4.104,4.118,4.123,4.1165,4.1404,4.1354,4.1371,4.1366,4.1383,4.1395,4.138,4.1137,0,0,0,0,0,4.0365,4.0467,4.0563,4.0692,4.0733,4.08,4.086,4.0883,4.0971,4.1005,4.1072,4.1156,4.1257,4.1322,4.142,4.1576,4.1599,4.1643,4.1656,4.1666,4.168,4.1765,4.1785,4.157,4.157,4.157,0,0,4.0411,4.0487,4.0549,4.0697,4.0764,4.0867,4.0829,4.094,4.1017,4.1022,4.116,4.1211,4.1307,4.1456,4.1525,4.1502,4.1744,4.1678,4.1686,4.1695,4.1777,4.1797,4.1815,4.1577,4.1576,4.1575,0,0,4.0548,4.0617,4.0731,4.0799,4.0901,4.0944,4.0971,4.1074,4.1109,4.1247,4.1253,4.1343,4.1517,4.1585,4.1642,4.1803,4.1802,4.1834,4.1902,4.1984,4.2001,4.2016,4.2072,4.2092,4.1847,4.1847,4.1848,0,4.0593,4.075,4.0789,4.0901,4.0965,4.0975,4.109,4.1154,4.1282,4.1325,4.1298,4.1516,4.1581,4.1745,4.1785,4.1831,4.1862,4.1822,4.1995,4.2011,4.2026,4.208,4.2101,4.1851,4.185,4.185,4.185,0,4.0799,4.0907,4.0987,4.1112,4.1185,4.1298,4.1353,4.1422,4.1438,4.1483,4.1623,4.1702,4.1815,4.1856,4.1872,4.2022,4.2005,4.1986,4.1937,4.2048,4.21,4.2122,4.1855,4.1854,4.1853,4.1852,0,0,4.0954,4.1097,4.1126,4.1182,4.1294,4.1378,4.149,4.1602,4.166,4.1748,4.1842,4.1988,4.1971,4.2036,4.2059,4.2132,4.2253,4.2104,4.2107,4.2128,4.2421,4.2435,4.2458,4.2252,4.2256,4.226,4.2413,0,4.1102,4.1304,4.1342,4.1516,4.1616,4.1626,4.1723,4.1802,4.1846,4.1936,4.1985,4.2088,4.2058,4.2097,4.2168,4.2223,4.2312,4.2212,4.2339,4.2343,4.2315,4.2486,4.2501,4.2642,4.2433,4.2437,4.2439,0,4.1304,4.1397,4.1581,4.1679,4.1722,4.181,4.1914,4.2001,4.2089,4.2116,4.2188,4.2203,4.2318,4.2263,4.2422,4.2353,4.2407,4.2441,4.2447,4.2461,4.2398,4.2503,4.2688,4.2709,4.2472,4.2469,4.2467,0,4.1397,4.1569,4.1701,4.1748,4.1866,4.1927,4.1978,4.2063,4.2127,4.2218,4.226,4.2362,4.2418,4.2496,4.2538,4.2495,4.2693,4.2642,4.2718,4.2717,4.276,4.2757,4.2955,4.2794,4.2794,4.2794,4.2793,0,4.156,4.1672,4.1744,4.1826,4.1951,4.1993,4.2116,4.2166,4.2241,4.2331,4.2345,4.2429,4.2479,4.257,4.2603,4.2728,4.2753,4.2777,4.2785,4.2777,4.2773,4.2813,4.2804,4.2799,4.2798,4.2797,4.2796,0,4.1686,4.1739,4.1884,4.1983,4.201,4.2098,4.2182,4.2261,4.2304,4.2418,4.2447,4.2516,4.2623,4.2672,4.2805,4.2827,4.2969,4.297,4.294,4.2943,4.3016,4.3008,4.3247,4.328,4.3097,4.3099,4.31,0,4.1786,4.1873,4.1981,4.2043,4.2096,4.2196,4.2261,4.2304,4.2372,4.2478,4.2543,4.2651,4.274,4.2911,4.2971,4.3072,4.3075,4.3152,4.3091,4.3079,4.3076,4.307,4.3079,4.3163,4.3165,4.3166,4.3167,0,4.1959,4.198,4.2075,4.2178,4.2256,4.234,4.2421,4.2471,4.2527,4.2601,4.2712,4.2781,4.2916,4.3022,4.3127,4.3178,4.3182,4.3186,4.3209,4.3201,4.318,4.3192,4.297,4.3181,4.3179,4.3178,4.3178,4.3177,4.2075,4.2152,4.224,4.2344,4.241,4.2486,4.2564,4.2618,4.2711,4.2825,4.2844,4.2961,4.3045,4.3187,4.3241,4.3332,4.3314,4.3347,4.3356,4.3363,4.3367,4.3166,4.3351,4.3351,4.3351,4.3351,4.335,0,4.2248,4.2304,4.24,4.2514,4.2595,4.2593,4.2682,4.275,4.2854,4.2932,4.3019,4.3145,4.3248,4.3316,4.342,4.3479,4.3484,4.3505,4.3501,4.3513,4.3378,4.3348,4.35,4.35,4.35,4.35,4.35,4.35,4.2347,4.2477,4.2509,4.267,4.2726,4.2842,4.2893,4.2962,4.3025,4.3165,4.3251,4.3295,4.3369,4.3478,4.3572,4.3589,4.3626,4.3649,4.3665,4.3538,4.3522,4.3507,4.3479,4.3657,4.3657,4.3792,4.3794,4.3794]}]]